Location: Home
(42.5358°N, 72.7383°W)
Time: 14:30:28
(UTC-05:00)

Vanguard 3 - Pass Details

Date: 02 December 2021
Orbit: 508 x 3260 km, 33.3° (Epoch: 20 January)

Event Time Altitude Azimuth Distance (km) Brightness Sun altitude
Rises 01:23:57 0° 200° (SSW) 6,700 - -60.2°
Reaches altitude 10° 01:29:22 10° 189° (S) 5,948 - -59.4°
Exits shadow 01:41:24 26° 150° (SSE) 4,930 10.9 -57.5°
Maximum altitude 01:43:44 27° 141° (SE) 4,884 11.0 -57.1°
Drops below altitude 10° 01:57:31 10° 93° (E) 5,759 11.8 -54.9°
Sets 02:02:31 0° 83° (E) 6,466 12.3 -54.0°
